EW8041 Weather Reports


Display with metric or nautical units.
time (UTC)temp
F
wind
direction
speed
MPH
gust
MPH
rain 1hr
in
rain 24hr
in
rain mn
in
humidity
%
barometer
mb
20260504023532 53 207 0.0 1.0 0.00 0.00 0.00 57 1017.8
20260504022528 54 207 0.0 1.0 0.00 0.00 0.00 56 1017.8
20260504021524 54 242 1.0 1.0 0.00 0.00 0.00 55 1017.5
20260504020520 55 0.0 0.0 0.00 0.00 0.00 55 1017.5
20260504015516 55 0.0 0.0 0.00 0.00 0.00 54 1017.4
20260504014532 56 0.0 0.0 0.00 0.00 0.00 53 1017.1
20260504013548 57 0.0 0.0 0.00 0.00 0.00 52 1017.1
20260504012523 58 256 0.0 1.0 0.00 0.00 0.00 51 1017.0
20260504011519 59 256 0.0 1.0 0.00 0.00 0.00 50 1016.8
20260504010535 60 256 0.0 1.0 0.00 0.00 0.00 49 1017.0
20260504005551 61 256 0.0 1.0 0.00 0.00 0.00 48 1017.0
20260504004527 62 256 0.0 1.0 0.00 0.00 0.00 47 1016.9
20260504003523 64 256 0.0 1.0 0.00 0.00 0.00 46 1016.7
20260504002539 65 239 1.0 2.0 0.00 0.00 0.00 46 1016.9
20260504001534 66 258 2.0 3.0 0.00 0.00 0.00 46 1017.0
20260504000531 66 275 2.0 4.0 0.00 0.00 0.00 46 1017.0
20260503235526 66 286 2.0 4.0 0.00 0.00 0.00 46 1017.0
20260503234522 67 274 2.0 6.0 0.00 0.00 0.00 46 1017.0
20260503233518 67 272 2.0 6.0 0.00 0.00 0.00 45 1017.2
20260503232554 67 266 2.0 6.0 0.00 0.00 0.00 44 1017.1
20260503231530 67 264 1.0 6.0 0.00 0.00 0.00 46 1017.2
20260503230525 68 248 2.0 4.0 0.00 0.00 0.00 47 1017.3
20260503225521 68 273 4.0 7.0 0.00 0.00 0.00 47 1017.3
20260503224517 68 259 2.0 7.0 0.00 0.00 0.00 47 1017.3
20260503223533 68 280 2.0 6.0 0.00 0.00 0.00 47 1017.4
20260503222529 68 311 1.0 6.0 0.00 0.00 0.00 46 1017.5
20260503221525 68 176 2.0 6.0 0.00 0.00 0.00 48 1017.5
20260503220521 69 258 1.0 4.0 0.00 0.00 0.00 48 1017.6
20260503215517 69 254 1.0 6.0 0.00 0.00 0.00 48 1017.6
20260503214533 69 260 3.0 7.0 0.00 0.00 0.00 48 1017.8
20260503213529 68 240 2.0 6.0 0.00 0.00 0.00 48 1017.9
20260503212524 69 276 2.0 7.0 0.00 0.00 0.00 46 1018.2
20260503211520 69 258 3.0 9.0 0.00 0.00 0.00 46 1018.2
20260503210516 69 276 2.0 6.0 0.00 0.00 0.00 45 1018.2
20260503205532 69 242 3.0 8.0 0.00 0.00 0.00 47 1018.1
20260503204648 70 254 3.0 7.0 0.00 0.00 0.00 48 1018.5
20260503203524 70 247 3.0 7.0 0.00 0.00 0.00 47 1018.5
20260503202540 70 219 4.0 11.0 0.00 0.00 0.00 48 1018.7
20260503201536 69 253 3.0 10.0 0.00 0.00 0.00 48 1019.0
20260503200531 69 245 3.0 7.0 0.00 0.00 0.00 50 1019.2
20260503195527 69 252 1.0 8.0 0.00 0.00 0.00 50 1019.4
20260503194522 69 244 3.0 9.0 0.00 0.00 0.00 52 1019.5
20260503193518 69 271 2.0 8.0 0.00 0.00 0.00 53 1019.7
20260503192555 68 262 4.0 10.0 0.00 0.00 0.00 54 1020.0
20260503191530 68 245 4.0 11.0 0.00 0.00 0.00 54 1020.0
20260503190546 68 247 3.0 7.0 0.00 0.00 0.00 54 1020.3
20260503185521 67 268 3.0 9.0 0.00 0.00 0.00 54 1020.3
20260503184517 68 253 2.0 7.0 0.00 0.00 0.00 55 1020.4
20260503183554 67 243 3.0 8.0 0.00 0.00 0.00 55 1020.5
20260503182529 67 261 3.0 7.0 0.00 0.00 0.00 57 1020.5
20260503181526 67 259 2.0 6.0 0.00 0.00 0.00 55 1020.6
20260503180523 66 285 2.0 8.0 0.00 0.00 0.00 56 1020.8
20260503175537 65 268 2.0 6.0 0.00 0.00 0.00 55 1020.9
20260503174533 66 258 3.0 7.0 0.00 0.00 0.00 56 1021.0
20260503173529 66 221 2.0 6.0 0.00 0.00 0.00 60 1021.1
20260503172524 66 267 3.0 7.0 0.00 0.00 0.00 61 1021.2
20260503171519 65 76 1.0 2.0 0.00 0.00 0.00 59 1021.4
20260503170535 65 84 2.0 8.0 0.00 0.00 0.00 62 1021.5
20260503150524 61 211 2.0 4.0 0.00 0.00 0.00 76 1022.0
20260503130533 50 98 0.0 1.0 0.00 0.00 0.00 88 1021.7
20260503110524 43 0.0 0.0 0.00 0.00 0.00 83 1020.7
20260503081535 47 307 0.0 3.0 0.00 0.00 0.00 83 1019.9
20260503080532 47 353 0.0 1.0 0.00 0.00 0.00 83 1019.9
20260503072535 46 3 0.0 1.0 0.00 0.00 0.00 75 1019.5
20260503071551 46 2 0.0 2.0 0.00 0.00 0.00 75 1019.6
20260503070526 47 348 0.0 1.0 0.00 0.00 0.00 75 1019.6
20260503054533 50 37 0.0 1.0 0.00 0.00 0.00 70 1019.2
20260503053529 50 26 0.0 1.0 0.00 0.00 0.00 70 1019.1
20260503052525 51 19 0.0 1.0 0.00 0.00 0.00 71 1019.1
20260503051540 51 18 0.0 3.0 0.00 0.00 0.00 73 1019.0
20260503050516 51 0 0.0 1.0 0.00 0.00 0.00 69 1018.8
20260503045532 52 41 0.0 1.0 0.00 0.00 0.00 68 1019.0
20260503044548 52 343 0.0 3.0 0.00 0.00 0.00 67 1018.9
20260503043523 52 22 1.0 4.0 0.00 0.00 0.00 68 1018.8
20260503042519 53 307 1.0 2.0 0.00 0.00 0.00 67 1018.8
20260503041534 53 299 0.0 2.0 0.00 0.00 0.00 67 1018.7
20260503040530 53 357 1.0 3.0 0.00 0.00 0.00 65 1018.6
20260503035545 54 353 0.0 1.0 0.00 0.00 0.00 64 1018.4
20260503034521 54 70 0.0 2.0 0.00 0.00 0.00 64 1018.5
20260503033517 54 21 1.0 3.0 0.00 0.00 0.00 63 1018.5
20260503032533 55 346 1.0 4.0 0.00 0.00 0.00 63 1018.4
20260503031530 55 25 0.0 1.0 0.00 0.00 0.00 62 1018.3
20260503030525 56 63 0.0 2.0 0.00 0.00 0.00 61 1018.2
20260503025641 56 20 2.0 4.0 0.00 0.00 0.00 62 1018.2
20260503024516 56 349 1.0 6.0 0.00 0.00 0.00 60 1018.0